Weather Roundup
Issued by NWS Chicago, IL

Home | Current Version | Previous Version | Graphics & Text | Print | Product List | Glossary On
Versions: 1 2 3 4 5 6 7 8 9 10 11 12 13 14 15 16 17 18 19 20 21 22 23 24 25 26 27 28 29 30 31 32 33 34 35 36 37 38 39 40 41 42 43 44 45 46 47 48 49 50
000
NZUS59 KLOT 032108
HRRLOT

CHICAGO AREA WEATHER ROUNDUP
NATIONAL WEATHER SERVICE CHICAGO/ROMEOVILLE IL
400 PM CDT TUE MAY 03 2016

NOTE: "FAIR" INDICATES FEW OR NO CLOUDS BELOW 12,000 FEET WITH NO
SIGNIFICANT WEATHER AND/OR OBSTRUCTIONS TO VISIBILITY.

* THESE STATIONS ARE NOT UNDER NWS QUALITY CONTROL. THEY ALSO MAY NOT
  REPORT WEATHER SUCH AS PRECIPITATION OR FOG.

ILZ005-006-012>014-019>023-032200-
NORTHEAST ILLINOIS

CITY           SKY/WX    TMP DP  RH WIND       PRES   REMARKS
OHARE          PTSUNNY   64  38  38 W15       29.82F
MIDWAY         PTSUNNY   65  36  34 W10       29.83F
AURORA         PTSUNNY   68  41  37 W23G30    29.84F
LANSING*       PTSUNNY   64  37  36 W8        29.85F
JOLIET*        CLOUDY    67  40  37 W8        29.85F
WAUKEGAN       MOSUNNY   66  36  32 SW9G21    29.79F
DUPAGE AIRPORT PTSUNNY   65  38  36 W17       29.83F
WHEELING       MOSUNNY   66  38  35 W8        29.82F
KANKAKEE*      CLOUDY   N/A N/A N/A W10G17    29.87F
MORRIS*        PTSUNNY   66  41  40 W18       29.84F
LEWIS AIRPORT* CLOUDY    64  39  39 W12       29.84F
$$

WIZ051-052-058>065-066-070>072-032200-
SOUTHEAST WISCONSIN

CITY           SKY/WX    TMP DP  RH WIND       PRES   REMARKS
MILWAUKEE      CLOUDY    67  33  28 W10G21    29.77F
KENOSHA*       CLOUDY    65  37  35 W17G23    29.79F
RACINE*        CLOUDY    66  34  30 W9G20     29.79F
BURLINGTON     PTSUNNY   65  34  32 SW16      29.79F
WAUKESHA       CLOUDY    63  34  34 W14G23    29.78F
WEST BEND      CLOUDY    64  32  29 W16G25    29.75F
$$

INZ001>003-010>013-019-020-032200-
NORTHWEST INDIANA

CITY           SKY/WX    TMP DP  RH WIND       PRES   REMARKS
GARY*          PTSUNNY   66  45  45 W12       29.84F
MICHIGAN CITY* NOT AVBL
RENSSELAER*    NOT AVBL
VALPARAISO     CLOUDY    65  35  33 VRB5      29.85F
$$

LMZ740>746-032200-
SOUTHERN LAKE MICHIGAN

STATION/POSITION TIME  SKY/WX   TEMP WIND        PRES    VSBY
                                AIR  DIR/SP/G
                 (UTC)          (F)  (DEG/KT/KT) (MB)    (MI)
HARRISON CRIB    2000            57  150/ 13/ 15   N/A
BURNHAM HARBOR   2100            58  290/  4/ 10   N/A
CALUMET HARBOR   2000            59   20/  6/  9 1010.4F
BURNS HARBOR     2000            63   40/  3/  3 1011.9F
MICHIGAN CITY    2000            59  230/  4/  4   N/A
$$

ABBREVIATIONS USED IN REMARKS
   TC - TEMPERATURE IN CELSIUS
  WCI - WIND CHILL INDEX
   HX - HEAT INDEX
  VSB - VISIBILITY
$$



USA.gov is the U.S. government's official web portal to all federal, state and local government web resources and services.